{"data":{"norad_id":63740,"epoch":"2026-05-25T02:30:01.436256Z","epoch_age_seconds":66200,"freshness":"FRESH","line1":"1 63740U 25088S   26145.10418329  .00001018  00000+0  16251-3 0  9996","line2":"2 63740  51.9009 117.6869 0000672  62.8374 297.2656 14.79943884 58938","mean_motion":14.79943884,"eccentricity":6.72e-5,"inclination_deg":51.9009,"raan_deg":117.6869,"arg_perigee_deg":62.8374,"mean_anomaly_deg":297.2656,"bstar":0.00016251,"rev_number":5893,"period_min":97.300986582543,"perigee_km":629.03035800279,"apogee_km":629.97218458645,"semimajor_km":7007.6382712946,"source":"CELESTRAK","updated_at":"2026-05-25T13:38:03.928805Z"}}